Date,TemperatureHighF,TemperatureAvgF,TemperatureLowF,DewpointHighF,DewpointAvgF,DewpointLowF,HumidityHigh,HumidityAvg,HumidityLow,PressureMaxIn,PressureMinIn,WindSpeedMaxMPH,WindSpeedAvgMPH,GustSpeedMaxMPH,PrecipitationSumIn
2013-1-1,29.8,19.3,11.3,21.6,13.3,6.8,98,78,53,30.23,30.09,0,-999,0,0.00
2013-1-2,35.8,20.5,10.9,23.2,15.5,7.5,93,82,58,30.20,30.06,0,-999,0,0.00
2013-1-3,40.5,29.0,21.7,27.9,23.8,20.3,98,82,53,30.35,30.18,0,-999,0,0.00
2013-1-4,46.0,30.3,19.0,28.0,23.8,18.9,99,79,47,30.33,30.17,0,-999,0,0.00
2013-1-5,47.1,36.4,28.4,34.7,29.3,23.0,84,75,59,30.17,30.00,0,-999,0,0.00
2013-1-6,46.2,30.3,21.4,24.4,21.2,18.1,89,70,35,30.33,30.11,0,-999,0,0.00
2013-1-7,51.6,37.2,25.2,29.3,24.2,20.7,83,62,33,30.22,29.97,0,-999,0,0.00
2013-1-8,59.0,42.8,32.0,35.1,31.0,27.9,86,66,32,30.13,29.90,0,-999,0,0.00
2013-1-9,56.8,42.1,32.2,36.3,32.1,6.8,88,69,41,30.35,30.14,0,-999,0,0.00
2013-1-10,50.0,43.8,38.5,49.6,41.1,29.1,99,91,57,30.26,29.68,0,-999,0,0.00
2013-1-11,60.3,54.0,48.6,50.0,48.0,31.6,99,82,45,29.71,29.54,0,-999,0,0.00
2013-1-12,54.1,29.6,21.0,34.7,18.4,9.9,86,64,36,30.04,29.71,0,-999,0,0.00
2013-1-13,29.7,19.3,11.7,10.9,7.4,4.1,75,60,38,30.28,29.99,0,-999,0,0.00
2013-1-14,36.5,20.8,11.7,13.5,7.6,-0.8,80,60,21,30.43,30.28,0,-999,0,0.00
2013-1-15,41.4,23.5,14.0,14.4,9.3,1.4,77,58,20,30.32,30.10,0,-999,0,0.00
2013-1-16,48.9,31.7,18.0,30.7,20.0,11.1,78,63,37,30.13,29.97,0,-999,0,0.00
2013-1-17,54.0,38.2,28.6,31.8,28.6,24.8,99,71,34,30.40,30.13,0,-999,0,0.00
2013-1-18,60.3,43.6,30.0,31.8,28.8,25.7,89,60,27,30.34,29.98,0,-999,0,0.00
2013-1-19,64.2,48.7,39.4,33.6,28.6,16.7,74,49,16,30.19,29.93,0,-999,0,0.00
2013-1-20,42.6,30.4,20.1,28.0,11.0,1.9,71,45,19,30.33,30.19,0,-999,0,0.00
2013-1-21,24.6,18.6,13.6,15.3,6.2,-1.5,82,60,32,30.37,30.28,0,-999,0,0.00
2013-1-22,20.7,16.4,12.9,10.0,6.2,4.5,72,64,58,30.30,30.19,0,-999,0,0.00
2013-1-23,54.3,31.9,14.9,23.5,16.4,9.0,79,56,23,30.33,30.10,0,-999,0,0.00
2013-1-24,26.6,21.4,10.6,15.6,6.5,1.4,73,53,35,30.40,30.09,0,-999,0,0.00
2013-1-25,52.7,34.8,21.0,21.7,15.7,10.2,65,47,22,30.19,30.07,0,-999,0,0.00
2013-1-26,59.5,43.9,31.3,29.1,22.1,14.0,72,45,17,30.22,30.01,0,-999,0,0.00
2013-1-27,59.9,50.8,40.1,57.6,46.8,30.2,96,87,57,30.03,29.70,0,-999,0,0.00
2013-1-28,77.0,65.9,58.6,63.1,59.0,53.2,99,80,47,29.81,29.61,0,-999,0,0.00
2013-1-29,66.9,47.9,35.2,63.9,46.8,35.1,99,96,81,29.64,29.36,0,-999,0,0.00
2013-1-30,35.8,27.2,19.8,35.6,23.1,15.6,99,85,68,29.92,29.46,0,-999,0,0.00
2013-1-31,49.6,18.7,8.4,21.6,10.9,1.0,91,72,44,30.40,29.88,0,-999,0,0.00
2013-2-1,27.3,18.7,6.3,16.5,8.4,-0.2,80,65,46,30.40,30.07,0,-999,0,0.00
2013-2-2,52.3,38.0,24.6,34.3,26.9,16.2,74,65,49,30.15,30.03,0,-999,0,0.00
2013-2-3,55.0,41.7,31.3,32.2,24.0,10.8,82,54,20,30.22,29.79,0,-999,0,0.00
2013-2-4,52.7,40.8,24.1,31.3,27.5,21.9,92,61,42,29.94,29.72,0,-999,0,0.00
2013-2-5,63.9,39.9,23.0,35.4,27.4,21.7,99,67,25,30.04,29.84,0,-999,0,0.00
2013-2-6,63.7,49.9,32.9,41.9,34.3,25.9,84,57,32,30.05,29.82,0,-999,0,0.00
2013-2-7,51.6,44.1,31.6,48.0,40.7,28.6,99,88,65,30.14,29.81,0,-999,0,0.00
2013-2-8,49.1,34.6,29.3,33.3,29.1,26.6,97,82,48,30.28,30.13,0,-999,0,0.00
2013-2-9,51.4,37.2,28.8,39.4,32.8,28.2,99,86,53,30.15,29.70,0,-999,0,0.00
2013-2-10,53.6,44.6,36.5,49.5,35.0,24.1,99,72,41,30.03,29.44,0,-999,0,0.00
2013-2-11,51.4,38.6,29.8,27.5,23.6,18.9,81,57,29,30.11,29.87,0,-999,0,0.00
2013-2-12,44.6,34.8,26.6,29.3,24.3,19.9,84,66,42,30.11,29.90,0,-999,0,0.00
2013-2-13,59.0,41.5,26.6,29.7,24.8,15.8,90,57,19,30.57,29.75,0,-999,0,0.00
2013-2-14,51.6,42.4,33.8,33.3,27.4,20.3,76,57,35,30.12,29.79,0,-999,0,0.00
2013-2-15,43.0,31.6,21.0,27.3,15.0,0.1,99,55,19,30.32,30.12,0,-999,0,0.00
2013-2-16,36.9,32.2,20.3,29.3,22.4,17.2,99,68,49,30.25,30.00,0,-999,0,0.00
2013-2-17,62.4,44.4,25.9,33.6,27.1,19.9,81,53,28,30.00,29.62,0,-999,0,0.00
2013-2-18,53.6,43.3,28.0,48.9,32.3,16.2,93,66,43,30.03,29.49,0,-999,0,0.00
2013-2-19,39.9,29.1,23.4,39.6,7.3,-14.6,79,46,10,30.25,30.03,0,-999,0,0.00
2013-2-20,26.1,21.6,16.9,15.1,7.8,1.6,69,55,46,30.31,30.09,0,-999,0,0.00
2013-2-21,26.6,23.8,20.3,26.4,21.6,14.5,99,91,68,30.11,29.68,0,-999,0,0.00
2013-2-22,33.8,23.8,14.7,24.1,18.7,12.0,99,82,53,30.02,29.72,0,-999,0,0.00
2013-2-23,44.2,24.2,8.2,30.2,15.2,7.2,99,73,34,30.07,29.88,0,-999,0,0.00
2013-2-24,47.8,33.7,18.5,28.4,23.7,17.2,96,70,41,29.95,29.83,0,-999,0,0.00
2013-2-25,37.2,33.5,30.2,34.3,29.1,25.3,99,84,69,29.90,29.59,0,-999,0,0.00
2013-2-26,36.9,32.7,30.6,36.7,32.2,30.4,99,98,86,29.80,29.51,0,-999,0,0.00
2013-2-27,39.2,32.5,28.6,30.6,28.1,24.1,99,85,60,29.99,29.78,0,-999,0,0.00
2013-2-28,33.8,30.8,28.6,28.4,26.0,24.4,87,82,73,30.14,29.97,0,-999,0,0.00
2013-3-1,32.7,27.3,22.8,25.0,22.1,19.0,88,81,69,30.24,30.11,0,-999,0,0.00
2013-3-2,44.8,28.3,20.8,22.1,18.7,16.0,93,69,35,30.29,30.11,0,-999,0,0.00
2013-3-3,49.1,36.1,23.7,29.1,24.7,19.0,85,65,41,30.11,29.68,0,-999,0,0.00
2013-3-4,56.7,41.7,34.7,34.5,31.0,28.8,99,67,37,29.91,29.61,0,-999,0,0.00
2013-3-5,39.7,32.9,26.1,34.7,22.6,16.5,99,67,49,30.28,29.91,0,-999,0,0.00
2013-3-6,46.6,32.6,23.0,21.9,19.5,15.6,82,61,30,30.36,30.19,0,-999,0,0.00
2013-3-7,49.5,35.8,23.7,32.2,26.4,19.9,87,70,49,30.22,30.05,0,-999,0,0.00
2013-3-8,60.6,48.1,36.1,44.1,36.5,29.1,81,65,46,30.14,29.91,0,-999,0,0.00
2013-3-10,53.4,39.8,26.8,53.1,39.3,23.9,99,98,90,29.85,29.49,0,-999,0,0.00
2013-3-11,41.4,30.1,24.6,25.2,22.5,19.9,93,75,45,29.96,29.81,0,-999,0,0.00
2013-3-12,50.9,38.0,29.8,31.3,23.9,15.1,86,59,26,30.27,29.94,0,-999,0,0.00
2013-3-13,52.0,35.5,23.5,24.4,20.6,9.5,88,58,19,30.41,30.25,0,-999,0,0.00
2013-3-14,36.3,35.0,33.6,25.3,24.0,22.8,69,64,58,30.25,30.09,0,-999,0,0.00
2013-3-16,47.7,42.6,37.4,37.6,33.4,25.9,91,70,59,30.11,29.84,0,-999,0,0.00
2013-3-17,37.4,34.4,32.5,33.3,28.7,26.6,94,80,71,29.99,29.89,0,-999,0,0.00
2013-3-18,56.5,46.5,34.7,39.9,24.8,9.9,99,48,16,30.00,29.75,0,-999,0,0.00
2013-3-19,41.0,33.7,27.7,39.6,26.9,16.3,99,78,46,30.19,29.99,0,-999,0,0.00
2013-3-20,38.1,30.9,24.4,34.0,18.4,5.2,99,63,25,30.33,30.17,0,-999,0,0.00
2013-3-29,68.7,57.1,50.5,48.0,42.8,37.4,89,62,33,30.07,30.02,0,-999,0,0.00
2013-3-30,71.4,57.6,50.2,59.4,52.0,46.0,99,83,49,30.03,29.81,0,-999,0,0.00
2013-3-31,68.5,56.7,45.3,53.4,39.8,20.8,99,59,20,29.93,29.86,0,-999,0,0.00
2013-4-1,51.6,42.7,34.7,34.9,19.9,0.1,84,44,14,30.22,29.93,0,-999,0,0.00
2013-4-2,52.2,40.0,30.0,24.6,19.8,12.4,67,46,22,30.27,30.17,0,-999,0,0.00
2013-4-3,52.9,42.2,32.5,26.2,22.8,19.0,73,48,29,30.29,30.17,0,-999,0,0.00
2013-4-4,68.7,51.9,37.2,30.4,22.4,8.6,64,35,11,30.17,30.00,0,-999,0,0.00
2013-4-5,72.7,57.2,39.6,41.9,36.3,22.5,77,48,24,30.12,29.81,0,-999,0,0.00
2013-4-6,79.3,64.1,55.2,49.1,42.6,30.9,63,48,18,29.81,29.62,0,-999,0,0.00
2013-4-7,71.4,60.7,45.7,59.2,48.8,39.2,99,67,42,29.83,29.61,0,-999,0,0.00
2013-4-8,76.6,65.5,56.3,64.2,60.7,55.9,99,86,62,29.68,29.62,0,-999,0,0.00
2013-4-9,73.8,67.2,52.0,65.5,61.6,51.4,99,83,72,29.73,29.59,0,-999,0,0.00
2013-4-10,51.4,41.3,35.6,51.1,41.1,34.5,99,99,60,29.90,29.68,0,-999,0,0.00
2013-4-11,42.8,36.7,33.1,35.4,30.3,22.5,99,79,57,30.14,29.67,0,-999,0,0.00
2013-4-12,33.8,32.9,32.4,28.4,28.0,27.5,85,82,78,29.75,29.73,0,-999,0,0.00
2013-4-23,37.8,35.3,33.4,35.1,34.1,32.5,99,95,81,30.12,29.96,0,-999,0,0.00
2013-4-24,34.3,32.7,29.3,34.2,31.0,27.0,99,94,88,30.16,30.09,0,-999,0,0.00
2013-5-20,84.2,74.6,65.8,70.7,67.1,63.0,98,79,56,29.72,29.59,0,-999,0,0.00
2013-5-21,78.3,67.3,55.8,65.5,53.6,49.1,98,64,39,29.75,29.65,0,-999,0,0.00
2013-5-22,73.2,63.4,54.0,54.3,51.9,48.2,90,67,44,29.91,29.69,0,-999,0,0.00
2013-5-23,72.7,62.9,52.5,56.5,52.9,50.2,92,71,51,30.16,29.90,0,-999,0,0.00
2013-5-24,77.7,63.4,49.8,56.8,51.2,48.0,99,68,39,30.25,30.06,0,-999,0,0.00
2013-5-25,86.0,72.6,61.5,66.6,59.9,48.4,88,65,47,30.10,29.94,0,-999,0,0.00
2013-5-26,87.1,76.3,68.0,70.5,68.4,65.8,98,78,53,30.00,29.83,0,-999,0,0.00
2013-5-27,85.8,72.8,63.3,73.2,67.0,63.0,99,83,59,29.88,29.61,0,-999,0,0.00
2013-5-28,81.1,74.8,71.1,75.0,70.1,67.6,94,85,75,29.77,29.60,0,-999,0,0.00
2013-5-29,81.9,75.0,64.0,69.8,67.6,63.5,99,78,64,29.77,29.60,0,-999,0,0.00
2013-5-30,80.6,65.8,62.1,67.6,63.7,61.7,99,94,61,29.70,29.56,0,-999,0,0.00
2013-5-31,86.0,69.6,59.2,73.0,65.2,58.8,99,88,49,29.72,29.61,0,-999,0,0.00
2013-6-1,73.0,66.6,61.0,66.2,57.0,50.4,99,73,48,29.93,29.65,0,-999,0,0.00
2013-6-2,72.0,60.1,51.1,54.9,50.7,45.9,91,73,40,30.04,29.93,0,-999,0,0.00
2013-6-3,77.2,62.9,46.0,59.0,53.3,45.3,99,73,48,30.02,29.83,0,-999,0,0.00
2013-6-4,81.0,67.4,62.2,68.2,62.6,58.5,99,85,58,29.92,29.80,0,-999,0,0.00
2013-6-5,74.7,65.2,62.2,71.6,64.0,61.9,99,96,75,29.94,29.86,0,-999,0,0.00
2013-6-6,81.0,69.3,58.1,63.3,56.1,47.1,99,67,33,29.92,29.86,0,-999,0,0.00
2013-6-7,82.6,69.0,55.8,59.9,52.6,41.0,97,61,24,29.97,29.86,0,-999,0,0.00
2013-6-8,83.7,70.2,55.0,63.0,58.0,52.7,95,68,44,29.90,29.71,0,-999,0,0.00
2013-6-9,86.2,72.5,62.6,66.6,58.5,41.9,99,68,23,29.81,29.72,0,-999,0,0.00
2013-6-10,93.4,76.3,60.8,67.5,60.1,49.8,94,62,27,29.86,29.78,0,-999,0,0.00
2013-6-11,97.7,82.7,72.0,85.1,67.3,57.9,93,63,27,29.86,29.76,0,-999,0,0.00
2013-6-12,98.1,86.1,76.1,72.5,69.6,60.8,83,60,33,29.88,29.73,0,-999,0,0.00
2013-6-13,89.8,76.0,61.7,68.4,60.1,55.0,84,60,34,30.01,29.61,0,-999,0,0.00
2013-6-14,93.7,79.0,66.2,76.8,70.4,63.7,98,77,53,29.98,29.82,0,-999,0,0.00
2013-6-15,94.3,77.0,67.5,76.6,71.6,64.8,99,86,46,29.97,29.77,0,-999,0,0.00
2013-6-16,88.7,76.1,66.4,77.0,71.9,66.0,99,88,63,29.93,29.85,0,-999,0,0.00
2013-6-17,89.8,75.1,67.8,73.6,68.6,59.7,99,82,42,29.99,29.85,0,-999,0,0.00
2013-6-18,89.6,75.0,64.6,71.6,67.0,60.1,99,80,41,29.98,29.92,0,-999,0,0.00
2013-6-19,90.7,77.2,63.3,72.0,66.9,63.0,99,74,42,30.00,29.88,0,-999,0,0.00
2013-6-20,91.8,80.5,68.7,75.6,71.7,67.3,99,76,54,29.97,29.85,0,-999,0,0.00
2013-6-21,95.2,83.5,75.0,76.6,73.4,69.1,96,73,49,29.94,29.86,0,-999,0,0.00
2013-6-22,94.8,83.3,74.1,74.1,71.2,66.0,87,69,42,29.95,29.81,0,-999,0,0.00
2013-6-23,95.2,83.1,73.6,76.3,72.0,67.6,95,71,43,29.91,29.77,0,-999,0,0.00
2013-6-24,93.6,83.4,75.7,72.9,69.6,64.0,83,64,42,29.91,29.75,0,-999,0,0.00
2013-6-25,93.0,81.9,74.3,75.9,71.5,68.0,98,72,47,29.86,29.68,0,-999,0,0.00
2013-6-26,105.6,88.7,75.0,74.8,65.6,36.1,93,55,10,29.86,29.68,0,-999,0,0.00
2013-6-27,93.9,80.8,70.3,79.2,70.3,63.9,99,71,54,29.96,29.78,0,-999,0,0.00
2013-6-28,92.8,80.1,68.2,74.3,63.3,48.6,99,63,24,29.91,29.83,0,-999,0,0.00
2013-6-29,88.0,77.6,65.1,60.8,55.7,44.4,80,51,24,29.85,29.77,0,-999,0,0.00
2013-6-30,84.2,77.7,67.3,60.4,56.2,52.2,71,49,35,29.99,29.92,0,-999,0,0.00
2013-7-1,87.6,73.7,59.0,59.0,51.8,40.6,89,52,20,30.06,29.99,0,-999,0,0.00
2013-7-2,89.6,74.4,59.0,61.2,51.7,39.4,91,52,18,30.09,30.00,0,-999,0,0.00
2013-7-3,92.5,73.1,61.7,59.0,54.6,39.7,86,59,18,30.04,29.93,0,-999,0,0.00
2013-7-4,92.7,76.6,60.3,61.0,55.6,46.8,84,53,22,30.00,29.90,0,-999,0,0.00
2013-7-5,94.1,79.8,64.6,63.5,59.7,51.4,83,54,24,29.96,29.85,0,-999,0,0.00
2013-7-6,90.9,77.4,69.1,69.6,64.0,61.3,84,65,41,29.95,29.86,0,-999,0,0.00
2013-7-7,95.2,83.0,73.4,70.2,66.6,64.0,83,60,38,29.94,29.87,0,-999,0,0.00
2013-7-8,100.4,85.4,74.5,70.5,67.1,62.1,76,57,30,29.99,29.90,0,-999,0,0.00
2013-7-9,104.4,89.0,76.8,75.6,70.7,66.0,81,58,31,29.96,29.81,0,-999,0,0.00
2013-7-10,98.1,86.8,76.1,73.6,65.4,45.5,69,51,18,29.99,29.85,0,-999,0,0.00
2013-7-11,91.2,79.3,68.2,64.2,59.5,50.9,80,54,27,30.04,29.93,0,-999,0,0.00
2013-7-12,94.8,80.3,67.5,67.1,62.8,59.4,83,58,37,30.00,29.92,0,-999,0,0.00
2013-7-13,96.8,81.1,69.1,68.0,62.5,57.2,68,54,35,29.99,29.90,0,-999,0,0.00
2013-7-14,91.2,79.4,65.5,64.8,59.1,46.9,91,54,23,30.06,29.94,0,-999,0,0.00
2013-7-15,93.7,86.2,74.1,67.3,64.9,59.7,78,50,34,30.13,30.04,0,-999,0,0.00
2013-7-16,100.8,84.7,70.3,72.0,66.2,55.9,96,59,24,30.22,30.12,0,-999,0,0.00
2013-7-17,99.5,85.2,72.5,73.9,68.2,57.9,92,61,26,30.27,30.14,0,-999,0,0.00
2013-7-18,102.0,87.0,71.6,70.9,64.5,51.8,90,53,20,30.16,29.95,0,-999,0,0.00
2013-7-19,104.4,88.4,72.3,68.5,61.4,47.1,80,46,15,29.97,29.81,0,-999,0,0.00
2013-7-20,95.0,78.6,71.2,75.0,70.1,64.4,99,78,37,29.90,29.81,0,-999,0,0.00
2013-7-21,94.3,79.1,70.0,72.7,69.3,63.1,99,76,37,29.89,29.76,0,-999,0,0.00
2013-7-22,96.1,83.2,70.5,75.2,68.7,59.2,99,66,32,29.82,29.74,0,-999,0,0.00
2013-7-23,90.7,80.8,71.8,76.3,69.5,64.6,99,71,44,29.88,29.77,0,-999,0,0.00
2013-7-24,92.8,79.2,67.6,64.4,54.6,41.4,77,47,17,30.00,29.87,0,-999,0,0.00
2013-7-25,90.9,75.6,65.3,70.0,62.3,53.8,89,67,30,30.05,29.95,0,-999,0,0.00
2013-7-26,93.2,77.8,67.5,69.3,62.4,49.3,94,64,24,30.01,29.93,0,-999,0,0.00
2013-7-27,84.7,69.1,57.6,57.7,51.7,37.6,87,58,20,30.07,29.93,0,-999,0,0.00
2013-7-28,78.1,68.1,59.7,59.5,52.5,41.0,92,61,29,30.02,29.97,0,-999,0,0.00
2013-7-29,71.8,66.7,60.8,71.2,64.5,56.1,99,93,75,30.03,29.89,0,-999,0,0.00
2013-7-30,89.1,77.2,71.4,79.3,72.5,70.0,99,87,60,30.02,29.91,0,-999,0,0.00
2013-7-31,92.5,79.2,70.7,73.6,66.3,55.8,99,70,31,30.07,29.99,0,-999,0,0.00
2013-8-1,95.2,80.1,65.8,71.1,64.0,52.2,99,64,24,30.06,29.91,0,-999,0,0.00
2013-8-2,94.6,78.6,66.7,73.9,70.4,66.4,99,78,48,29.94,29.81,0,-999,0,0.00
2013-8-3,86.0,77.5,71.4,74.7,71.5,67.5,99,83,61,30.07,29.86,0,-999,0,0.00
2013-8-4,75.4,71.4,66.2,74.5,69.4,63.5,99,94,77,30.09,29.80,0,-999,0,0.00
2013-8-5,89.8,78.2,69.8,75.9,72.3,69.4,99,84,55,30.00,29.78,0,-999,0,0.00
2013-8-6,91.9,80.2,70.7,75.9,72.9,69.3,99,80,51,29.85,29.75,0,-999,0,0.00
2013-8-7,93.0,79.2,70.3,76.3,71.9,65.5,99,80,51,29.94,29.73,0,-999,0,0.00
2013-8-8,75.6,72.2,68.9,67.8,65.5,63.1,89,80,71,29.96,29.81,0,-999,0,0.00
2013-8-9,76.3,71.8,67.6,70.3,65.7,60.6,90,81,60,30.07,29.93,0,-999,0,0.00
2013-8-10,87.8,74.9,64.0,67.5,62.0,54.1,99,68,33,30.14,30.03,0,-999,0,0.00
2013-8-11,90.7,76.9,63.7,69.1,62.9,58.3,84,64,39,30.09,29.96,0,-999,0,0.00
2013-8-12,91.4,77.1,67.6,73.6,67.8,61.3,99,76,38,30.00,29.91,0,-999,0,0.00
2013-8-13,86.2,74.8,68.5,68.7,59.6,43.7,95,63,24,30.07,29.96,0,-999,0,0.00
2013-8-14,84.4,70.5,61.3,62.1,58.0,51.3,94,67,34,30.15,30.04,0,-999,0,0.00
2013-8-15,80.4,68.4,62.2,60.3,56.0,50.7,80,66,36,30.07,29.95,0,-999,0,0.00
2013-8-16,80.1,69.1,60.6,58.6,54.9,50.0,86,63,36,30.12,30.01,0,-999,0,0.00
2013-8-17,82.8,69.2,55.6,57.7,52.3,43.5,89,59,26,30.15,30.05,0,-999,0,0.00
2013-8-18,89.2,72.3,59.0,62.6,56.7,51.1,87,62,28,30.12,30.02,0,-999,0,0.00
2013-8-19,91.2,75.5,61.9,66.7,61.6,55.0,99,67,31,30.07,29.95,0,-999,0,0.00
2013-8-20,93.6,78.7,65.7,67.1,63.1,56.7,94,63,31,30.03,29.94,0,-999,0,0.00
2013-8-21,94.8,80.1,67.1,69.1,64.6,59.0,89,63,31,30.04,29.95,0,-999,0,0.00
2013-8-22,96.4,81.4,69.3,70.5,66.6,59.9,94,65,31,30.06,29.96,0,-999,0,0.00
2013-8-23,95.0,82.0,70.7,72.7,66.2,54.5,98,64,26,30.04,29.96,0,-999,0,0.00
2013-8-24,95.7,82.0,71.2,72.3,68.4,62.8,93,67,35,30.09,29.99,0,-999,0,0.00
2013-8-25,97.7,83.0,71.4,71.2,68.3,61.5,90,65,32,30.16,30.06,0,-999,0,0.00
2013-8-26,98.8,84.1,71.4,71.4,67.6,58.3,94,62,27,30.12,30.00,13,-473,13,0.00
2013-8-27,97.7,83.3,70.5,69.6,62.9,49.6,88,55,20,30.04,29.94,15,4,15,0.00
2013-8-28,98.6,82.5,70.2,70.3,65.5,58.3,89,60,28,30.02,29.95,13,3,15,0.00
2013-8-29,99.9,85.5,73.2,72.7,67.3,55.2,91,60,23,30.00,29.90,10,3,11,0.00
2013-8-30,105.1,88.1,74.7,70.9,63.6,41.4,81,52,12,29.93,29.78,12,3,12,0.00
2013-8-31,99.3,84.3,75.9,72.7,68.2,58.3,79,61,29,29.83,29.74,11,2,11,0.09
2013-9-1,93.4,79.7,69.3,74.3,66.4,56.5,99,67,35,29.92,29.72,23,4,23,0.60
2013-9-2,89.8,74.5,61.7,63.1,56.9,44.4,93,59,22,30.01,29.90,9,3,9,0.06
2013-9-3,91.8,74.3,60.3,58.6,51.6,34.7,88,52,14,30.06,29.97,9,2,9,0.00
2013-9-4,92.1,74.9,61.0,60.3,54.4,37.0,81,54,15,30.12,30.01,10,2,10,0.00
2013-9-5,93.0,77.1,62.8,63.9,56.9,46.6,85,55,21,30.15,30.05,11,2,11,0.00
2013-9-6,96.1,79.5,66.4,63.3,59.1,50.2,82,55,22,30.09,29.94,10,2,10,0.00
2013-9-7,102.6,84.4,70.0,66.6,60.2,48.2,78,50,17,29.96,29.84,11,3,11,0.00
2013-9-8,105.1,88.3,75.0,66.2,58.8,43.5,68,43,13,29.87,29.77,11,3,11,0.00
2013-9-9,99.7,85.4,74.8,63.1,55.3,32.0,65,41,11,29.91,29.83,18,5,18,0.00
2013-9-10,98.4,83.0,71.4,63.0,58.2,45.3,74,48,17,30.03,29.90,19,4,19,0.00
2013-9-11,99.7,82.9,67.1,99.7,57.0,31.5,79,42,10,30.09,29.97,15,3,15,0.00
2013-9-12,90.5,77.7,70.3,73.0,61.1,36.7,96,60,29,30.11,30.01,13,3,13,0.00
2013-9-13,80.2,68.6,58.3,47.8,41.4,30.2,62,40,17,30.13,30.00,14,4,14,0.00
2013-9-14,84.4,67.5,53.1,50.0,44.1,29.3,74,47,15,30.05,29.90,11,4,11,0.00
2013-9-15,95.5,73.9,63.3,66.0,56.0,49.5,86,56,24,30.08,29.88,14,5,14,0.00
2013-9-16,65.8,61.2,59.9,62.8,59.6,57.4,99,95,83,30.20,30.07,16,7,16,0.00
2013-9-17,76.6,66.1,61.2,70.7,64.8,60.8,99,96,74,30.13,29.92,11,4,11,0.06
2013-9-18,93.0,78.2,66.9,71.1,66.7,60.8,99,72,35,29.94,29.78,14,5,14,0.00
2013-9-19,95.9,79.7,66.9,69.1,64.3,54.1,99,65,26,29.89,29.70,20,6,22,0.01
2013-9-20,77.9,64.9,55.9,66.7,49.8,35.1,99,63,23,30.02,29.86,11,3,11,0.00
2013-9-21,85.3,64.6,48.2,49.5,42.4,18.0,93,54,10,30.00,29.86,8,2,8,0.00
2013-9-22,81.9,65.3,52.7,50.7,45.0,31.3,83,54,17,29.94,29.81,13,3,13,0.00
2013-9-23,81.7,66.1,52.7,52.0,48.0,38.5,87,57,22,29.88,29.73,17,5,17,0.00
2013-9-24,75.4,65.2,60.4,57.9,54.7,51.8,86,69,50,29.81,29.71,14,4,14,0.00
2013-9-25,83.8,66.9,55.6,63.7,58.4,55.2,99,78,40,29.86,29.76,11,3,11,0.00
2013-9-26,89.8,73.1,59.0,60.3,55.3,42.8,98,61,20,29.87,29.78,16,5,16,0.00
2013-9-27,90.5,76.7,67.1,59.9,56.3,44.8,76,53,21,29.92,29.81,17,5,17,0.00
2013-9-28,75.6,65.4,53.1,67.6,57.5,51.8,99,78,46,30.03,29.76,15,4,16,0.01
2013-9-29,80.1,61.5,44.4,66.6,46.3,32.5,99,67,19,30.06,29.90,8,1,8,0.02
2013-9-30,85.3,65.3,48.9,57.6,51.4,46.2,99,67,28,29.91,29.77,11,2,12,0.11
2013-10-1,89.6,71.5,59.4,68.4,59.9,54.1,99,71,32,29.92,29.80,11,3,11,0.00
2013-10-2,89.6,72.8,62.4,71.8,65.0,59.2,99,80,36,29.97,29.83,11,2,11,0.00
2013-10-3,88.5,75.3,66.4,69.1,66.1,61.3,97,75,41,29.85,29.69,18,6,18,0.01
2013-10-4,90.5,77.1,65.5,69.3,65.2,55.2,98,70,33,29.86,29.69,21,7,21,0.01
2013-10-5,65.3,55.0,46.9,60.3,35.0,23.0,84,49,22,29.99,29.85,18,5,18,0.00
2013-10-6,65.5,52.3,42.4,40.3,35.3,29.7,73,54,29,29.96,29.80,20,7,20,0.00
2013-10-7,80.1,59.1,42.4,79.9,37.2,16.3,79,46,10,30.09,29.94,12,2,12,0.18
2013-10-8,80.1,62.4,48.2,46.6,38.8,18.0,80,50,10,30.06,29.95,15,4,15,0.02
2013-10-9,81.7,63.5,50.4,81.5,41.4,18.7,80,50,10,30.04,29.95,16,4,16,0.00
2013-10-10,83.1,65.7,50.7,51.6,46.8,38.5,85,55,22,30.01,29.81,12,4,12,0.00
2013-10-11,79.9,67.0,57.7,63.9,57.4,50.9,97,72,49,29.83,29.71,30,6,30,0.01
2013-10-12,77.4,61.0,49.3,77.2,39.4,13.3,99,47,10,30.19,29.80,11,3,11,0.00
2013-10-13,73.2,58.8,46.2,73.2,36.2,10.4,64,35,10,30.33,30.18,18,5,18,0.00
2013-10-14,70.5,59.5,53.6,61.0,42.9,27.0,96,58,30,30.22,29.81,18,7,18,0.01
2013-10-15,66.4,55.8,46.0,60.1,42.1,28.0,99,64,24,30.02,29.81,17,4,17,0.00
2013-10-16,66.4,51.5,41.9,41.7,35.3,26.8,78,57,24,30.06,29.92,11,3,11,0.00
2013-10-17,71.1,54.3,41.5,42.1,35.5,9.1,88,55,10,29.97,29.84,15,4,15,0.00
2013-10-18,50.2,40.8,35.6,38.1,34.6,28.9,96,79,50,30.07,29.96,11,3,11,0.01
2013-10-19,65.7,47.1,32.9,39.2,30.9,14.2,99,65,15,30.04,29.84,15,5,16,0.00
2013-11-13,22.5,21.8,21.0,9.7,7.7,5.4,60,54,47,30.58,30.49,3,1,3,0.00
2013-11-14,36.5,34.6,32.2,20.1,17.5,15.6,60,50,42,30.08,30.03,8,3,8,0.00
2013-11-15,44.2,44.0,43.9,28.6,28.0,27.9,54,53,53,29.89,29.88,5,3,5,0.00
2013-11-17,67.5,62.2,52.3,67.5,45.3,1.0,77,33,10,29.86,29.30,34,13,34,0.00
2013-11-20,48.6,46.5,44.1,35.4,34.5,31.5,67,63,59,29.90,29.83,4,2,4,0.00
2013-11-21,51.3,41.7,27.7,48.0,36.2,24.3,95,82,57,30.34,29.89,17,5,17,0.00
2013-11-22,31.1,28.1,23.4,24.3,20.7,16.7,87,73,69,30.52,30.33,13,6,15,0.00
2013-11-23,25.2,22.8,14.7,17.2,13.7,1.8,77,68,54,30.66,30.51,8,3,8,0.00
2013-11-24,28.0,25.6,14.4,7.7,3.1,-2.7,59,38,27,30.66,30.24,8,4,8,0.00
2013-11-25,33.8,29.2,26.8,19.4,12.3,7.3,67,49,41,30.25,30.09,9,2,9,0.00
2013-11-26,34.5,25.9,19.4,22.1,11.2,1.8,82,56,29,30.33,30.10,16,4,16,0.00
2013-11-27,36.9,23.9,14.2,7.2,2.9,-15.2,65,43,10,30.35,30.09,10,4,10,0.00
2013-11-28,47.7,33.2,25.2,14.0,9.8,3.2,59,39,17,30.40,30.07,11,4,13,0.00
2013-11-29,49.6,34.8,23.9,19.0,16.4,12.9,66,49,27,30.40,30.32,10,5,10,0.00
2013-11-30,61.0,46.2,34.2,32.2,27.5,21.4,80,51,22,30.10,30.01,11,2,11,0.00
2013-12-1,64.0,44.6,31.3,37.2,31.2,20.5,94,64,19,30.05,29.81,8,2,8,0.00
2013-12-2,39.2,36.6,34.3,38.1,35.7,33.6,99,96,86,29.81,29.69,6,2,6,0.00
2013-12-3,62.2,48.5,40.1,49.8,42.7,39.9,99,83,45,29.56,29.47,9,3,9,0.01
2013-12-4,45.3,33.6,23.0,45.1,29.0,6.8,99,84,50,29.97,29.45,18,7,18,0.00
2013-12-5,23.0,18.1,15.8,12.6,2.7,-3.1,78,51,40,30.29,29.96,18,8,18,0.00
2013-12-6,16.7,13.5,8.1,-2.0,-7.7,-16.2,49,38,22,30.55,30.27,12,5,12,0.00
2013-12-7,8.1,6.1,3.9,-5.8,-6.6,-7.1,61,55,50,30.59,30.53,7,2,8,0.00
2013-12-9,11.5,11.4,11.3,6.4,5.9,5.2,80,78,76,30.21,30.18,7,4,7,0.00
2013-12-10,45.3,26.0,10.2,45.0,5.1,-10.7,68,42,10,30.26,30.11,13,4,13,0.00
2013-12-11,33.3,21.4,10.0,32.5,1.5,-21.8,74,45,10,30.53,30.15,14,4,14,0.00
2013-12-12,48.6,28.8,10.4,48.2,8.0,-9.9,66,36,10,30.52,30.09,17,5,17,0.00
2013-12-13,37.0,33.0,25.3,34.9,29.1,18.3,99,86,66,30.09,29.78,10,3,10,0.00
2013-12-14,34.5,25.9,17.8,34.3,21.3,12.0,99,83,67,30.16,29.81,17,6,17,0.00
2013-12-15,54.0,34.2,16.3,24.4,18.3,12.0,84,56,21,30.15,29.90,13,4,13,0.00
2013-12-16,64.4,43.6,31.1,64.0,22.4,1.2,60,37,10,30.09,29.90,13,3,13,0.00
2013-12-17,50.4,36.3,27.0,26.4,16.4,-2.6,79,49,11,30.22,30.08,13,3,15,0.00
2013-12-18,65.7,46.6,29.1,65.7,20.6,5.2,58,37,10,30.16,29.73,22,6,22,0.00
2013-12-19,56.7,53.8,45.1,49.1,41.9,26.4,78,65,36,29.74,29.58,14,5,14,0.00
2013-12-20,45.1,24.5,19.8,36.3,20.2,14.4,94,83,71,29.88,29.63,17,6,17,0.00
2013-12-21,28.6,24.4,20.7,26.6,20.5,14.9,93,85,78,29.82,29.53,10,4,11,0.00
2013-12-24,30.6,21.3,3.6,26.1,12.1,-3.6,85,68,46,30.43,30.12,11,4,11,0.00
2013-12-25,37.4,31.4,28.2,27.9,24.4,20.3,89,77,51,30.26,30.17,12,4,12,0.01
2013-12-26,45.5,35.1,23.2,23.7,20.8,18.0,85,59,34,30.21,30.16,15,6,15,0.00
2013-12-27,59.4,41.9,26.4,29.8,24.6,12.9,84,55,17,30.27,30.12,9,3,9,0.00
2013-12-28,59.5,42.4,29.8,59.5,24.1,1.9,78,50,11,30.12,29.83,16,4,16,0.00
2013-12-29,38.8,18.4,9.1,26.6,0.3,-18.6,66,47,20,30.25,29.88,23,8,23,0.00
2013-12-30,34.2,19.2,7.5,34.2,-3.9,-18.9,51,34,11,30.22,30.09,14,4,14,0.00
2013-12-31,51.6,34.0,16.7,17.8,11.8,2.1,77,45,13,30.25,29.98,21,4,21,0.00
2014-1-1,27.0,17.0,9.7,18.1,9.1,2.8,76,71,58,30.20,29.95,20,6,20,0.00
2014-1-2,5.0,2.9,1.0,-5.4,-7.4,-8.9,66,61,57,30.37,30.28,8,3,8,0.00